Tracking 34171 objects as of 21-May-2026
HD Live streaming from Space Station
objects crossing your sky now

KUIPER-00300

Track KUIPER-00300 now!
10-day predictions
KUIPER-00300 is classified as:


NORAD ID: 68597
Int'l Code: 2026-072AA
Perigee: 482.1 km
Apogee: 493.3 km
Inclination: 51.9 °
Period: 94.2 minutes
Semi major axis: 6858 km
RCS: Unknown
Launch date: April 4, 2026
Source: United States (US)
Launch site: AIR FORCE EASTERN TEST RANGE (AFETR)
Your satellite tracking list
Your tracking list is empty




NASA's NSSDC Master Catalog

Two Line Element Set (TLE):
1 68597U 26072AA  26140.91668981  .00068515  00000-0  24307-2 0  9996
2 68597  51.8746 309.1667 0008175 284.8060 308.6528 15.28403745  5555
Source of the keplerian elements: AFSPC